Location: Newark
(29.9790°N, 31.1340°E)
Time: 09:57:41
(UTC+00:00)

Vanguard 2 - Visible Passes

Search period start: 28 January 2020 00:00
Search period end: 07 February 2020 00:00
Orbit: 553 x 2938 km, 32.9° (Epoch: 27 January)

Date Brightness Start Highest point End Pass type
(mag) Time Alt. Az. Time Alt. Az. Time Alt. Az.
28 Jan 12.1 03:53:26 10° S 04:05:23 22° SE 04:16:05 10° E visible
29 Jan 12.0 04:09:14 10° SSW 04:23:22 30° SE 04:35:43 10° E visible
30 Jan 12.3 02:24:40 10° SSE 02:29:45 12° SE 02:34:48 10° ESE visible
31 Jan 12.0 02:37:29 10° S 02:47:40 18° SE 02:57:46 10° E visible
01 Feb 11.9 02:52:43 10° S 03:05:31 26° SE 03:18:07 10° E visible
02 Feb 11.6 03:08:51 10° SSW 03:23:19 34° SE 03:37:30 10° E visible
03 Feb 11.9 01:23:24 10° SSE 01:30:09 14° SE 01:37:14 10° ESE visible
03 Feb 11.3 03:25:33 10° SSW 03:41:09 43° SE 03:56:21 10° E visible
04 Feb 11.7 01:37:26 10° S 01:47:49 20° SE 01:59:04 10° E visible
04 Feb 11.1 03:42:38 10° SW 03:59:01 53° SSE 04:14:51 10° ENE visible
05 Feb 11.5 01:53:05 10° S 02:05:27 28° SE 02:19:07 10° E visible
05 Feb 10.9 04:00:03 10° SW 04:16:59 63° SSE 04:33:11 10° ENE visible
06 Feb 11.3 02:09:28 10° SSW 02:23:05 37° SE 02:38:21 10° E visible
06 Feb 10.7 04:17:44 10° SW 04:35:03 73° SSE 04:51:25 10° ENE visible
